Regional Weather Roundup
Issued by NWS

Home | Current Version | Previous Version | Text Only | Print | Product List | Glossary Off
Versions: 1 2 3 4 5 6 7 8 9 10 11 12 13 14 15 16 17 18 19 20 21 22 23 24 25 26 27 28 29 30 31 32 33 34 35 36 37 38 39 40 41 42 43 44 45 46 47 48 49 50

000
ASUS43 KFSD 010410
RWRSD

WEATHER ROUNDUP FOR SOUTH DAKOTA
NATIONAL WEATHER SERVICE SIOUX FALLS SD
1000 PM CST SAT FEB 28 2015

NOTE: "FAIR" INDICATES FEW OR NO CLOUDS BELOW 12,000 FEET WITH NO
SIGNIFICANT WEATHER AND/OR OBSTRUCTIONS TO VISIBILITY.


SDZ001>005-009-010-012>017-010500-
NORTHWEST AND NORTH CENTRAL SOUTH DAKOTA

CITY           SKY/WX    TMP DP  RH WIND       PRES   REMARKS
BUFFALO          N/A      8   3  80 W9        30.08R WCI  -5
FAITH            N/A     12   3  67 W6        30.19R WCI   3
MOBRIDGE       CLEAR      6   2  83 CALM      30.18R
$$

SDZ012>016-024>037-041>051-057-063-072>074-010500-
SOUTHWEST AND SOUTH CENTRAL SOUTH DAKOTA

CITY           SKY/WX    TMP DP  RH WIND       PRES   REMARKS
RAPID CTY ARPT MOCLDY    14   8  77 CALM      30.17R
PIERRE         PTCLDY    12   4  70 N6        30.23R WCI   3
CUSTER         CLOUDY     9   5  84 CALM      30.01R
ELLSWORTH AFB  CLOUDY    16   8  71 N2        30.16R
PHILIP         MOCLDY    11   1  64 NW6       30.23R WCI   1
PINE RIDGE     CLOUDY    18  10  71 NE3       30.15R
WINNER         FAIR      16  -2  45 NW9       30.23R WCI   4
$$

SDZ004>011-016>023-039-040-010500-
NORTHEAST SOUTH DAKOTA

CITY           SKY/WX    TMP DP  RH WIND       PRES   REMARKS
ABERDEEN       CLEAR     11   5  77 N8        30.24R WCI  -1
WATERTOWN      PTCLDY    18  13  80 NW9       30.15R WCI   7
SISSETON         N/A     18  12  77 N17       30.20R WCI   3
$$

SDZ017-020-022-023-036>040-048>070-010500-
SOUTHEAST SOUTH DAKOTA

CITY           SKY/WX    TMP DP  RH WIND       PRES   REMARKS
SIOUX FALLS    MOCLDY    19  11  70 S15       30.21S WCI   5
HURON          PTCLDY    14  10  84 NW10      30.23R WCI   1
CHAMBERLAIN    PTCLDY    18  11  75 NW8       30.24R WCI   7
MITCHELL       CLEAR     17  13  84 NW7       30.25R WCI   8
YANKTON        CLEAR     21  10  63 SW14G22   30.26R WCI   8
$$

ABBREVIATIONS USED IN REMARKS
   TC - TEMPERATURE IN CELSIUS
  WCI - WIND CHILL INDEX
   HX - HEAT INDEX
  VSB - VISIBILITY




USA.gov is the U.S. government's official web portal to all federal, state and local government web resources and services.